Location: U-46 Planetarium
(42.0300°N, 88.2740°W)
Time: 02:48:04
(UTC-05:00)

Cosmos 2298 Rocket - Pass Details

Date: 16 December 2017
Orbit: 775 x 784 km, 74.0° (Epoch: 20 April)

Event Time Altitude Azimuth Distance (km) Brightness Sun altitude
Rises 16:48:18 0° 204° (SSW) 3,254 8.2 -5.0°
Reaches altitude 10° 16:50:41 10° 206° (SSW) 2,329 7.4 -5.4°
Maximum altitude 16:55:58 72° 291° (WNW) 821 4.3 -6.2°
Drops below altitude 10° 17:01:17 10° 16° (NNE) 2,338 6.1 -7.1°
Sets 17:03:41 0° 18° (NNE) 3,269 6.8 -7.5°
